TimeEDT,TemperatureF,Dew PointF,Humidity,Sea Level PressureIn,VisibilityMPH,Wind Direction,Wind SpeedMPH,Gust SpeedMPH,PrecipitationIn,Events,Conditions,WindDirDegrees,DateUTC
12:58 AM,72.5,62.6,71,30.01,10.0,West,6.9,-,N/A,,Overcast,260,2013-05-17 04:58:00
1:58 AM,71.8,62.6,73,30.00,10.0,West,6.9,-,N/A,,Overcast,260,2013-05-17 05:58:00
2:58 AM,69.8,62.8,78,30.00,10.0,WSW,5.8,-,N/A,,Overcast,240,2013-05-17 06:58:00
3:58 AM,68.7,62.4,80,30.01,10.0,WSW,4.6,-,N/A,,Mostly Cloudy,240,2013-05-17 07:58:00
4:58 AM,68.2,62.4,82,30.03,10.0,West,3.5,-,N/A,,Overcast,280,2013-05-17 08:58:00
5:58 AM,67.8,62.2,82,30.05,10.0,West,3.5,-,N/A,,Overcast,260,2013-05-17 09:58:00
6:55 AM,68.4,62.2,81,30.06,10.0,Calm,Calm,-,N/A,,Mostly Cloudy,0,2013-05-17 10:55:00
7:55 AM,69.8,63.0,79,30.09,10.0,SW,3.5,-,N/A,,Partly Cloudy,230,2013-05-17 11:55:00
8:55 AM,74.5,62.4,66,30.09,10.0,West,4.6,-,N/A,,Clear,260,2013-05-17 12:55:00
9:55 AM,78.8,64.4,61,30.09,10.0,Variable,3.5,-,N/A,,Clear,0,2013-05-17 13:55:00
10:55 AM,80.8,63.1,55,30.09,10.0,Calm,Calm,-,N/A,,Clear,0,2013-05-17 14:55:00
11:55 AM,84.4,63.1,49,30.08,10.0,Variable,3.5,-,N/A,,Clear,0,2013-05-17 15:55:00
12:55 PM,85.1,62.4,46,30.07,10.0,SW,4.6,-,N/A,,Clear,230,2013-05-17 16:55:00
1:55 PM,86.5,61.0,42,30.06,10.0,Calm,Calm,-,N/A,,Scattered Clouds,0,2013-05-17 17:55:00
2:55 PM,88.0,60.6,40,30.06,10.0,Variable,5.8,-,N/A,,Partly Cloudy,0,2013-05-17 18:55:00
3:55 PM,89.1,59.7,37,30.04,10.0,WSW,11.5,-,N/A,,Partly Cloudy,240,2013-05-17 19:55:00
4:58 PM,89.1,56.8,33,30.04,10.0,WSW,12.7,-,N/A,,Partly Cloudy,250,2013-05-17 20:58:00
5:58 PM,88.7,55.4,32,30.04,10.0,SW,12.7,18.4,N/A,,Clear,220,2013-05-17 21:58:00
6:58 PM,86.5,57.0,37,30.02,10.0,SSW,8.1,-,N/A,,Clear,210,2013-05-17 22:58:00
7:22 PM,86.0,57.2,37,30.03,10.0,SSW,5.8,-,N/A,Rain,Light Rain,200,2013-05-17 23:22:00
7:58 PM,84.4,58.6,42,30.04,10.0,SSW,5.8,-,N/A,,Clear,210,2013-05-17 23:58:00
8:58 PM,82.0,59.2,46,30.05,10.0,SSW,5.8,-,N/A,,Clear,210,2013-05-18 00:58:00
9:58 PM,80.4,59.4,49,30.07,10.0,SW,5.8,-,N/A,,Clear,220,2013-05-18 01:58:00
10:58 PM,75.0,60.8,61,30.08,10.0,SW,2.3,-,N/A,,Partly Cloudy,230,2013-05-18 02:58:00
11:58 PM,75.9,64.2,67,30.09,10.0,SW,8.1,-,N/A,,Clear,220,2013-05-18 03:58:00